Location: Unspecified
(0.0000°N, 0.0000°E)
Time: 00:55:54
(UTC+00:00)

N. Korean satellite - Pass Details

Date: 16 January 2021
Orbit: 453 x 502 km, 97.2° (Epoch: 16 January)

Event Time Altitude Azimuth Distance (km) Brightness Sun altitude
Rises 04:15:58 0° 44° (NE) 2,465 10.4 -26.4°
Reaches altitude 10° 04:19:00 10° 75° (ENE) 1,588 9.8 -25.7°
Maximum altitude 04:20:29 12° 101° (E) 1,443 9.9 -25.4°
Drops below altitude 10° 04:21:59 10° 127° (SE) 1,587 10.1 -25.0°
Sets 04:25:00 0° 158° (SSE) 2,461 10.8 -24.3°
